Flag for Germany Weather past 2 weeks in Dinslaken, North Rhine-Westphalia, Germany

Now
71 °F

Passing clouds.


Feels Like: 70 °F
Forecast: 73 / 95 °F
Wind: 2 mph from Northeast

Location: Essen

Current Time: Jul 3, 2015 at 8:17:45 AM

Latest Report: Jul 3, 2015 at 8:00 AM


Visibility: 11 mi

Pressure: 30.24 "Hg

Humidity: 83%

Dew point: 65 °F

Location of DinslakenLocation

Historic Weather in Dinslaken — Graph

°F

Dinslaken temperature yesterday

Maximum temperature yesterday: 96 °F (at 4:00 PM)
Minimum temperature yesterday: 76 °F (at 6:00 AM)
Average temperature yesterday: 86 °F

Past Weeks' High & Low Weather Summary

 TemperatureHumidityPressure
High96 °F (Jul 2, 4:00 PM)100% (Jun 18, 7:00 AM)30.24 "Hg (Jun 18, 7:00 AM)
Low48 °F (Jun 23, 5:00 AM)24% (Jul 1, 5:00 PM)29.71 "Hg (Jun 22, 9:00 PM)
Average64 °F70%30.07 "Hg
* Reported Jun 18 7:00 AM — Jul 3 7:00 AM, Dinslaken, Weather by CustomWeather, © 2015

Note: Actual official high and low records may vary slightly from our data, if they occured in-between our weather recording intervals... More about our weather records

Advertising

Dinslaken weather history for previous 24 hours

 ConditionsComfort  
Time TempWeatherWind HumidityBarometerVisibility
7:00 AM
Fri, Jul 3
68 °FPartly sunny.1 mph91%30.24 "Hg10 mi
6:00 AM67 °FOvercast.2 mph91%30.24 "Hg10 mi
5:00 AM68 °FPassing clouds.3 mph88%30.22 "Hg11 mi
4:00 AM69 °FPassing clouds.1 mph87%30.19 "Hg10 mi
3:00 AM70 °FOvercast.2 mph87%30.19 "Hg8 mi
2:00 AM71 °FOvercast.2 mph88%30.17 "Hg7 mi
1:00 AM71 °FRain. Low clouds.5 mph83%30.15 "Hg3 mi
12:00 AM76 °FPassing clouds.3 mph69%30.12 "Hg12 mi
11:00 PM
Thu, Jul 2
79 °FClear.3 mph65%30.07 "Hg11 mi
10:00 PM82 °FOvercast.3 mph60%30.06 "Hg13 mi
9:00 PM90 °FOvercast.1 mph41%30.04 "Hg22 mi
8:00 PM90 °FPartly sunny.3 mph43%30.03 "Hg19 mi
7:00 PM93 °FPartly sunny.5 mph37%30.03 "Hg19 mi
6:00 PM95 °FOvercast.5 mph35%30.02 "Hg25 mi
5:00 PM95 °FSunny.6 mph33%30.03 "Hg15 mi
4:00 PM96 °FSunny.5 mph35%30.03 "Hg11 mi
3:00 PM95 °FSunny.6 mph35%30.03 "Hg15 mi
2:00 PM94 °FPassing clouds.8 mph36%30.03 "Hg3 mi
1:00 PM93 °FSunny.5 mph38%30.04 "Hg19 mi
12:00 PM92 °FSunny.3 mph40%30.04 "Hg17 mi
11:00 AM89 °FSunny.5 mph42%30.05 "Hg17 mi
10:00 AM87 °FSunny.5 mph43%30.05 "Hg17 mi
9:00 AM84 °FSunny.6 mph44%30.05 "Hg12 mi
8:00 AM83 °FSunny.3 mph50%30.04 "Hg25 mi
Weather by CustomWeather, © 2015

See weather overviewHow to use our weather pages